Location: Kimberly
(42.5380°N, 114.3640°W)
Time: 09:50:35
(UTC-06:00)

X-37B - Pass Details

Date: 02 August 2021
Orbit: 381 x 393 km, 45.0° (Epoch: 29 August)

Event Time Altitude Azimuth Distance (km) Brightness Sun altitude
Exits shadow 05:49:31 10° 251° (WSW) 1,416 2.8 -7.5°
Reaches altitude 10° 05:49:35 10° 251° (WSW) 1,390 2.7 -7.5°
Maximum altitude 05:52:43 89° 154° (SSE) 384 0.5 -7.0°
Drops below altitude 10° 05:55:52 10° 73° (ENE) 1,396 5.0 -6.5°
Sets 05:57:56 0° 73° (ENE) 2,252 6.4 -6.2°
